Погода в Знаменке

Россия / Кировская область     57°14′42″N   47°49′53″E
темп.,
°C
ветер,
м/с
пор.,
м/с
влажн.,
%
обл.,
%
осадки,
мм/ч
давл.,
гПа
погр.,
м
4 июля, пн
пн400:00+11ссв359239 0.0 101572
03:00+11ссв239074 0.0 101548
06:00+13ссв3683100 0.0 1015233
09:00+17ссв566719 0.0 1015913
12:00+19св575411 0.0 10151648
15:00+20св465023 0.0 10151744
18:00+19всв466743 0.0 1015428
21:00+13в2281100 0.0 101611
5 июля, вт
вт500:00+11в2277100 0.0 101711
03:00+10св117723 0.0 101810
06:00+14ссв016930 0.0 101999
09:00+18сз1257100 0.0 1018634
12:00+20ссз22497 0.0 10181301
15:00+22ссз124664 0.0 10171507
18:00+21юз23635 0.0 1016131
21:00+15юз337630 0.0 101630
6 июля, ср
ср600:00+13зюз34795 0.0 101756
03:00+12зюз33900 0.0 101745
06:00+16зюз35792 0.0 1016164
09:00+21зюз4563100 0.0 1016467
12:00+24зюз445198 0.0 10161102
15:00+25зюз35525 0.0 10151495
18:00+23зюз3469100 0.0 1014108
21:00+19ююз498589 0.3 1014160
7 июля, чт
чт700:00+17зюз398597 0.0 1014174
03:00+16юз369164 0.1 101495
06:00+18юз378746 0.3 1015206
09:00+23юз4670100 0.3 1014552
12:00+26юз566094 0.0 10141166
15:00+28зюз475455 0.0 10142214
18:00+21ссв2389100 1.5 101477
21:00+19ююв3595100 6.8 101593
8 июля, пт
пт800:00+18юз3897100 1.8 1015181
03:00+17зюз3596100 1.8 1016104
06:00+20з239361 0.0 1017221
09:00+23з338086 0.0 1017779
12:00+23ссз347699 0.1 1017658
15:00+25сз246148 0.1 10171313
18:00+24всв347696 0.0 1017208
21:00+19вюв2281100 0.0 101714